MOLNIYA 3-7 (9941 NORAD) Tracking and Keplerian Element Data

This shows tracking and keplerian element data for the satellite.

Feedback or suggestion? Click here.




ElementValue
Catalog9941
NameMOLNIYA 3-7
Epoch Orbit30999
Epoch Day220.05655169
Epoch Year2019
RAAN56.2641
Inclination61.4893
Eccentricity0.0475618
Argument of Perigee279.6545
Mean Anonmoly235.5874
Mean Motion15.58149226
Decay Rate0.16569444
L11 09941U 77032A 19220.05655169 .16569444 82387-5 49358-4 0 9998
L22 09941 61.4893 56.2641 0475618 279.6545 235.5874 15.58149226309996



Live tracking and technical data element details for MOLNIYA 3-7 (NORAD 9941). MOLNIYA 3-7 can be tracked NOW for your location showing map with azimuth and elevation plus other details from your city location.







IsCatalogInMostPopularTable: catalog: 9941, numindb: 378
Update: records affected: 1



GetName: 9941 MOLNIYA 3-7

Hit Count: updated at: Thu, 21 May 2026 11:18:56 GMT